This is the latest recevied weather packets stored in our database for station/object NI4CE-14. If no packets are shown the sender has not sent any weather packets the latest 10 day(s).
| Time | Temp. | Humidity | Pressure | Rain* | Wind** | Luminosity | Snow |
|---|---|---|---|---|---|---|---|
| 1777561106 | 30° C | 100% | 1010.9 hPa | 0 mm | - | - | - |
| 1777560806 | 30° C | 100% | 1010.9 hPa | 0 mm | - | - | - |
| 1777560206 | 30° C | 100% | 1010.6 hPa | 0 mm | - | - | - |
| 1777559632 | 30° C | 100% | 1010.4 hPa | 0 mm | - | - | - |
| 1777559606 | 29.44° C | 100% | 1010.6 hPa | 0 mm | - | - | - |
| 1777559304 | 30° C | 100% | 1010.5 hPa | 0 mm | - | - | - |
| 1777559006 | 30° C | 100% | 1010.5 hPa | 0 mm | - | - | - |
| 1777558706 | 30° C | 100% | 1010.2 hPa | 0 mm | - | - | - |
| 1777558406 | 30° C | 100% | 1010.3 hPa | 0 mm | - | - | - |
| 1777558106 | 29.44° C | 100% | 1010.2 hPa | 0 mm | - | - | - |
| 1777557506 | 29.44° C | 100% | 1010.2 hPa | 0 mm | - | - | - |
| 1777557206 | 30° C | 100% | 1010 hPa | 0 mm | - | - | - |
| 1777556606 | 29.44° C | 100% | 1010.1 hPa | 0 mm | - | - | - |
| 1777555706 | 28.89° C | 100% | 1010.1 hPa | 0 mm | - | - | - |
| 1777555637 | 28.89° C | 100% | 1010.2 hPa | 0 mm | - | - | - |
| 1777555406 | 28.89° C | 100% | 1010.2 hPa | 0 mm | - | - | - |
| 1777555106 | 28.89° C | 100% | 1010.3 hPa | 0 mm | - | - | - |
| 1777554943 | 28.33° C | 100% | 1010.5 hPa | 0 mm | - | - | - |
| 1777554811 | 28.33° C | 100% | 1010.5 hPa | 0 mm | - | - | - |
| 1777554810 | 28.33° C | 100% | 1010.5 hPa | 0 mm | - | - | - |
| 1777554506 | 28.89° C | 100% | 1010.6 hPa | 0 mm | - | - | - |
| 1777553016 | 28.33° C | 100% | 1011.1 hPa | 0 mm | - | - | - |
| 1777553006 | 28.33° C | 100% | 1011.1 hPa | 0 mm | - | - | - |
| 1777552706 | 28.33° C | 100% | 1011.1 hPa | 0 mm | - | - | - |
| 1777552106 | 28.33° C | 100% | 1011 hPa | 0 mm | - | - | - |
* Rain latest hour (hover to see other rain measurements)
** Current wind speed in m/s (hover to see current wind gust speed)